Home > Weather > Yangon > Past weeks

Flag for Myanmar Past Weather in Yangon, Myanmar — Yesterday and Last 2 Weeks

Now
86 °F

Broken clouds.


Feels Like: 97 °F
Forecast: 78 / 90 °F
Wind: 2 mph from Southwest

Location: Rangoon Airport

Current Time: Jul 27, 2016 at 7:57:26 PM

Latest Report: Jul 27, 2016 at 7:00 PM


Visibility: 4 mi

Pressure: 29.71 "Hg

Humidity: 75%

Dew Point: 77 °F

Location of YangonLocation

Past Weather in Yangon — Graph

°F

Yangon Temperature Yesterday

Maximum temperature yesterday: 91 °F (at 1:30 PM)
Minimum temperature yesterday: 79 °F (at 5:00 AM)
Average temperature yesterday: 87 °F

High & Low Weather Summary for the Past Weeks

 TemperatureHumidityPressure
High91 °F (Jul 18, 3:30 PM)100% (Jul 12, 6:30 PM)29.89 "Hg (Jul 12, 6:30 PM)
Low75 °F (Jul 14, 12:00 PM)63% (Jul 26, 5:30 PM)29.65 "Hg (Jul 14, 4:00 PM)
Average82 °F88%29.76 "Hg
* Reported Jul 12 6:30 PM — Jul 27 6:30 PM, Yangon, Weather by CustomWeather, © 2016

Note: Actual official high and low records may vary slightly from our data, if they occured in-between our weather recording intervals... More about our weather records

Advertising

Yangon Weather History for the Previous 24 Hours

Scroll right to see more
 ConditionsComfort  
Time TempWeatherWind HumidityBarometerVisibility
6:30 PM
Wed, Jul 27
88 °FBroken clouds.2 mph70%29.71 "Hg4 mi
6:00 PM88 °FBroken clouds.3 mph70%29.71 "Hg4 mi
5:30 PM90 °FScattered clouds.5 mph71%29.68 "Hg5 mi
5:00 PM90 °FScattered clouds.6 mphN/AN/A5 mi
4:00 PM91 °FScattered clouds.7 mphN/AN/A6 mi
3:00 PM91 °FScattered clouds.5 mphN/AN/A6 mi
2:00 PM91 °FScattered clouds.5 mphN/AN/A6 mi
1:30 PM90 °FScattered clouds.7 mphN/AN/A5 mi
1:00 PM90 °FScattered clouds.6 mphN/AN/A5 mi
12:30 PM88 °FScattered clouds.8 mphN/AN/A5 mi
12:00 PM88 °FScattered clouds.7 mph70%29.80 "Hg5 mi
11:00 AM88 °FWarm.5 mph70%29.80 "Hg5 mi
10:30 AM86 °FScattered clouds.7 mph75%29.80 "Hg5 mi
10:00 AM86 °FScattered clouds.7 mph75%29.80 "Hg5 mi
9:30 AM86 °FScattered clouds.7 mph75%29.80 "Hg5 mi
9:00 AM84 °FScattered clouds.7 mph84%29.80 "Hg4 mi
8:30 AM82 °FScattered clouds.7 mph84%29.80 "Hg4 mi
7:30 AM82 °FScattered clouds.7 mph84%29.80 "Hg4 mi
7:00 AM81 °FScattered clouds.7 mph94%29.80 "Hg4 mi
6:00 AM81 °FPassing clouds.5 mph94%29.77 "Hg4 mi
5:30 AM81 °FPassing clouds.9 mph94%29.77 "Hg4 mi
5:00 AM81 °FPassing clouds.12 mph94%29.77 "Hg4 mi
11:30 PM
Tue, Jul 26
82 °FPassing clouds.9 mph89%29.80 "Hg4 mi
11:00 PM82 °FPassing clouds.9 mph89%29.80 "Hg4 mi
10:30 PM82 °FPassing clouds.9 mph89%29.80 "Hg4 mi
10:00 PM82 °FPassing clouds.8 mph94%29.80 "Hg4 mi
9:30 PM82 °FPassing clouds.8 mph94%29.80 "Hg4 mi
9:00 PM82 °FPassing clouds.8 mph84%29.77 "Hg4 mi
8:00 PM86 °FPassing clouds.8 mph70%29.77 "Hg5 mi
7:30 PM86 °FPassing clouds.8 mph70%29.74 "Hg5 mi
7:00 PM88 °FPassing clouds.8 mph66%29.74 "Hg5 mi
Weather by CustomWeather, © 2016

See weather overviewHow to use our weather pages